When you browse on this site, cookies collect data to enhance your experience and personalize the content and advertising you see.
Visit our Privacy Policy to learn more. By continuing to use the site, you agree to this use of cookies and data.
  • In Romania
  • List of Countries
  • For 7 days
  • Water Temperature
  • Weather Map
  • Weather Widgets
  • user-avatar
    Login

    Hourly Weather Maceio

    Today, 20 September, Friday

    Time Temperature Precipitation Wind Pressure Humidity
    00:00 +22°C° 0 mm 5 mps 761 mmHg 87%
    01:00 +22°C° 0 mm 5 mps 760 mmHg 87%
    02:00 +22°C° 0 mm 4 mps 760 mmHg 87%
    03:00 +21°C° 0 mm 4 mps 760 mmHg 87%
    04:00 +21°C° 0 mm 4 mps 760 mmHg 88%
    05:00 +22°C° 0 mm 3 mps 760 mmHg 87%
    06:00 +22°C° 0 mm 3 mps 761 mmHg 87%
    07:00 +23°C° 0 mm 2 mps 761 mmHg 87%
    08:00 +25°C° 0.1 mm 3 mps 761 mmHg 78%
    09:00 +27°C° 0.1 mm 3 mps 761 mmHg 70%
    10:00 +30°C° 0.1 mm 4 mps 762 mmHg 62%
    11:00 +30°C° 0.3 mm 5 mps 761 mmHg 65%
    12:00 +29°C° 0.3 mm 5 mps 761 mmHg 67%
    13:00 +29°C° 0.3 mm 6 mps 761 mmHg 69%
    14:00 +29°C° 0.1 mm 6 mps 761 mmHg 69%
    15:00 +29°C° 0.1 mm 6 mps 760 mmHg 69%
    16:00 +28°C° 0.1 mm 6 mps 760 mmHg 70%
    17:00 +27°C° 0 mm 6 mps 760 mmHg 74%
    18:00 +26°C° 0 mm 5 mps 761 mmHg 78%
    19:00 +25°C° 0 mm 5 mps 761 mmHg 83%
    20:00 +25°C° 0 mm 5 mps 761 mmHg 85%
    21:00 +23°C° 0 mm 5 mps 761 mmHg 87%
    22:00 +23°C° 0 mm 5 mps 762 mmHg 89%
    23:00 +23°C° 0.1 mm 4 mps 761 mmHg 90%

    Tomorrow, 21 September, Saturday

    Time Temperature Precipitation Wind Pressure Humidity
    00:00 +23°C° 0.1 mm 4 mps 761 mmHg 91%
    01:00 +22°C° 0.1 mm 4 mps 761 mmHg 92%
    02:00 +22°C° 0.1 mm 4 mps 761 mmHg 92%
    03:00 +22°C° 0.1 mm 4 mps 760 mmHg 92%
    04:00 +22°C° 0.1 mm 4 mps 760 mmHg 92%
    05:00 +22°C° 0.2 mm 4 mps 760 mmHg 91%
    06:00 +23°C° 0.2 mm 4 mps 761 mmHg 91%
    07:00 +23°C° 0.2 mm 4 mps 761 mmHg 91%
    08:00 +26°C° 0.1 mm 4 mps 761 mmHg 85%
    09:00 +27°C° 0.1 mm 5 mps 761 mmHg 78%
    10:00 +29°C° 0.1 mm 5 mps 761 mmHg 72%
    11:00 +29°C° 0 mm 5 mps 761 mmHg 67%
    12:00 +30°C° 0 mm 5 mps 761 mmHg 62%
    13:00 +32°C° 0 mm 5 mps 760 mmHg 57%
    14:00 +30°C° 0 mm 5 mps 760 mmHg 60%
    15:00 +30°C° 0 mm 5 mps 760 mmHg 62%
    16:00 +29°C° 0 mm 5 mps 759 mmHg 65%
    17:00 +28°C° 0 mm 5 mps 759 mmHg 72%
    18:00 +26°C° 0 mm 4 mps 760 mmHg 80%
    19:00 +25°C° 0 mm 4 mps 760 mmHg 87%
    20:00 +25°C° 0.1 mm 4 mps 760 mmHg 89%
    21:00 +23°C° 0.1 mm 4 mps 760 mmHg 91%
    22:00 +23°C° 0.1 mm 4 mps 761 mmHg 92%
    23:00 +23°C° 0.3 mm 4 mps 760 mmHg 92%

    Day after tomorrow, 22 September, Sunday

    Time Temperature Precipitation Wind Pressure Humidity
    00:00 +23°C° 0.3 mm 4 mps 760 mmHg 92%
    01:00 +23°C° 0.3 mm 4 mps 760 mmHg 92%
    02:00 +23°C° 0.1 mm 4 mps 760 mmHg 92%
    03:00 +22°C° 0.1 mm 4 mps 760 mmHg 92%
    04:00 +22°C° 0.1 mm 3 mps 759 mmHg 92%
    05:00 +24°C° 0 mm 3 mps 760 mmHg 91%
    06:00 +24°C° 0 mm 3 mps 760 mmHg 91%
    07:00 +24°C° 0 mm 3 mps 761 mmHg 90%
    08:00 +26°C° 0 mm 3 mps 761 mmHg 81%
    09:00 +28°C° 0 mm 3 mps 761 mmHg 72%
    10:00 +30°C° 0 mm 4 mps 762 mmHg 63%
    11:00 +30°C° 0 mm 4 mps 761 mmHg 61%
    12:00 +32°C° 0 mm 4 mps 761 mmHg 58%
    13:00 +32°C° 0 mm 5 mps 760 mmHg 56%
    14:00 +32°C° 0 mm 5 mps 760 mmHg 58%
    15:00 +30°C° 0 mm 5 mps 760 mmHg 60%
    16:00 +30°C° 0 mm 5 mps 759 mmHg 62%
    17:00 +28°C° 0 mm 4 mps 760 mmHg 69%
    18:00 +27°C° 0 mm 4 mps 760 mmHg 77%
    19:00 +25°C° 0 mm 4 mps 760 mmHg 84%
    20:00 +25°C° 0.1 mm 4 mps 761 mmHg 87%
    21:00 +23°C° 0.1 mm 4 mps 761 mmHg 89%
    22:00 +23°C° 0.1 mm 5 mps 761 mmHg 92%
    23:00 +23°C° 0.1 mm 5 mps 761 mmHg 92%

    23 September, Monday

    Time Temperature Precipitation Wind Pressure Humidity
    00:00 +23°C° 0.1 mm 4 mps 761 mmHg 92%
    01:00 +23°C° 0.1 mm 4 mps 761 mmHg 92%
    02:00 +23°C° 0.1 mm 4 mps 761 mmHg 92%
    03:00 +23°C° 0.1 mm 4 mps 761 mmHg 92%
    04:00 +23°C° 0.1 mm 4 mps 761 mmHg 92%
    05:00 +23°C° 0.3 mm 4 mps 761 mmHg 92%
    06:00 +25°C° 0.3 mm 5 mps 761 mmHg 92%
    07:00 +25°C° 0.3 mm 5 mps 762 mmHg 91%
    08:00 +26°C° 0.5 mm 5 mps 762 mmHg 87%
    09:00 +27°C° 0.5 mm 5 mps 762 mmHg 84%
    10:00 +28°C° 0.5 mm 5 mps 763 mmHg 80%
    11:00 +27°C° 0.5 mm 5 mps 762 mmHg 80%
    12:00 +27°C° 0.5 mm 5 mps 762 mmHg 81%
    13:00 +27°C° 0.5 mm 5 mps 761 mmHg 82%
    14:00 +27°C° 0.2 mm 5 mps 761 mmHg 80%
    15:00 +28°C° 0.2 mm 5 mps 761 mmHg 77%
    16:00 +28°C° 0.2 mm 5 mps 761 mmHg 75%
    17:00 +27°C° 0 mm 5 mps 761 mmHg 79%
    18:00 +26°C° 0 mm 5 mps 761 mmHg 83%
    19:00 +25°C° 0 mm 4 mps 762 mmHg 87%
    20:00 +25°C° 0.1 mm 4 mps 762 mmHg 87%
    21:00 +23°C° 0.1 mm 4 mps 762 mmHg 88%
    22:00 +23°C° 0.1 mm 4 mps 763 mmHg 88%
    23:00 +23°C° 0 mm 4 mps 762 mmHg 88%

    24 September, Tuesday

    Time Temperature Precipitation Wind Pressure Humidity
    00:00 +23°C° 0 mm 4 mps 762 mmHg 89%
    01:00 +22°C° 0 mm 3 mps 762 mmHg 89%
    02:00 +22°C° 0.2 mm 4 mps 761 mmHg 90%
    03:00 +22°C° 0.2 mm 4 mps 761 mmHg 90%
    04:00 +22°C° 0.2 mm 4 mps 761 mmHg 91%
    05:00 +23°C° 0.4 mm 5 mps 761 mmHg 91%
    06:00 +23°C° 0.4 mm 5 mps 761 mmHg 90%
    07:00 +25°C° 0.4 mm 5 mps 761 mmHg 90%
    08:00 +26°C° 0.1 mm 5 mps 762 mmHg 82%
    09:00 +28°C° 0.1 mm 5 mps 762 mmHg 73%
    10:00 +29°C° 0.1 mm 5 mps 762 mmHg 65%
    11:00 +30°C° 0.1 mm 5 mps 762 mmHg 63%
    12:00 +30°C° 0.1 mm 5 mps 761 mmHg 61%
    13:00 +32°C° 0.1 mm 5 mps 761 mmHg 58%
    14:00 +30°C° 0.3 mm 5 mps 761 mmHg 63%
    15:00 +29°C° 0.3 mm 5 mps 760 mmHg 67%
    16:00 +28°C° 0.3 mm 5 mps 760 mmHg 71%
    17:00 +27°C° 0.4 mm 5 mps 760 mmHg 77%
    18:00 +26°C° 0.4 mm 4 mps 760 mmHg 83%
    19:00 +23°C° 0.4 mm 4 mps 761 mmHg 90%
    20:00 +23°C° 0.5 mm 4 mps 761 mmHg 90%
    21:00 +23°C° 0.5 mm 4 mps 761 mmHg 91%
    22:00 +23°C° 0.5 mm 4 mps 762 mmHg 92%
    23:00 +23°C° 0.4 mm 4 mps 761 mmHg 92%

    25 September, Wednesday

    Time Temperature Precipitation Wind Pressure Humidity
    00:00 +23°C° 0.4 mm 4 mps 761 mmHg 92%
    01:00 +24°C° 0.4 mm 3 mps 760 mmHg 92%
    02:00 +24°C° 0.3 mm 3 mps 760 mmHg 92%
    03:00 +22°C° 0.3 mm 3 mps 760 mmHg 93%
    04:00 +22°C° 0.3 mm 3 mps 760 mmHg 93%
    05:00 +22°C° 0.2 mm 4 mps 760 mmHg 93%
    06:00 +23°C° 0.2 mm 4 mps 760 mmHg 92%
    07:00 +23°C° 0.2 mm 4 mps 760 mmHg 92%
    08:00 +25°C° 0.1 mm 4 mps 761 mmHg 86%
    09:00 +27°C° 0.1 mm 5 mps 761 mmHg 80%
    10:00 +28°C° 0.1 mm 5 mps 761 mmHg 74%
    11:00 +29°C° 0 mm 5 mps 760 mmHg 70%
    12:00 +30°C° 0 mm 5 mps 760 mmHg 66%
    13:00 +30°C° 0 mm 5 mps 760 mmHg 62%
    14:00 +30°C° 0 mm 5 mps 759 mmHg 64%
    15:00 +29°C° 0 mm 5 mps 759 mmHg 65%
    16:00 +29°C° 0 mm 5 mps 758 mmHg 67%
    17:00 +27°C° 0 mm 5 mps 759 mmHg 72%
    18:00 +26°C° 0 mm 5 mps 759 mmHg 77%
    19:00 +25°C° 0 mm 5 mps 759 mmHg 82%
    20:00 +23°C° 0 mm 5 mps 760 mmHg 83%
    21:00 +23°C° 0 mm 5 mps 760 mmHg 85%
    22:00 +22°C° 0 mm 4 mps 761 mmHg 87%
    23:00 +22°C° 0 mm 4 mps 760 mmHg 89%
    Show more